Location: Unspecified
(54.1780°N, 0.0000°E)
Time: 10:23:59
(UTC+00:00)

Tiros 1 - Pass Details

Date: 20 June 2019
Orbit: 630 x 664 km, 48.4° (Epoch: 18 July)

Event Time Altitude Azimuth Distance (km) Brightness Sun altitude
Rises 01:54:58 0° 243° (WSW) 2,935 - -8.6°
Exits shadow 01:56:44 - 238° (WSW) 2,270 9.4 -8.5°
Reaches altitude 10° 01:57:25 10° 235° (SW) 2,022 9.2 -8.5°
Maximum altitude 02:01:41 37° 168° (SSE) 992 7.7 -8.2°
Drops below altitude 10° 02:05:56 10° 102° (ESE) 2,012 9.9 -7.9°
Sets 02:08:22 0° 94° (E) 2,919 10.9 -7.7°
